Temperature
23 24 24 24 24 24 24 23 23 23 23 23 23 23 23 22 21 21 21 21 20 19 19 18 18 17 17 17 17 17 16 16 16 16 16 15 15 15 15 15 14 14 15 15
24 24 24 24 23 23 23 23 23 23 23 23 23 23 23 22 21 21 21 21 20 20 19 18 18 17 17 17 17 17 17 16 16 16 15 15 15 15 15 15 15 14 14 15
23 24 23 23 23 23 23 23 23 23 23 23 23 23 23 23 22 20 20 20 20 20 20 19 18 18 17 17 17 17 17 16 16 16 15 15 15 15 15 15 14 14 14 14
23 23 23 23 23 23 23 23 23 23 23 23 23 23 24 24 23 22 21 20 20 19 19 19 18 18 17 17 17 17 16 16 16 16 15 15 15 15 15 15 15 14 14 14
23 23 23 23 23 23 23 23 23 23 23 23 23 23 24 24 23 23 22 20 20 19 19 18 18 17 17 17 17 17 16 16 16 16 15 15 15 15 15 15 15 14 14 14
23 23 23 23 23 23 23 23 23 23 23 22 23 23 23 24 23 23 22 21 20 19 18 18 18 17 17 17 17 16 16 16 16 16 15 15 15 15 15 15 15 14 14 14
23 23 23 23 23 23 23 23 22 22 22 23 23 23 23 23 23 22 22 21 20 19 18 18 17 17 17 17 17 16 16 16 16 16 15 15 15 15 15 15 15 15 14 14
22 22 23 23 23 23 23 23 22 22 22 23 23 23 23 22 21 21 21 20 19 18 18 17 17 17 16 16 16 16 16 16 16 15 15 15 15 15 15 15 15 15 15 14
22 22 22 22 22 23 22 23 23 23 22 22 23 23 23 22 21 21 20 20 19 18 17 17 16 16 16 16 16 16 16 16 15 15 15 15 15 15 15 15 15 14 14 14
22 22 22 22 22 22 22 23 22 22 21 21 22 23 23 22 21 21 20 20 19 18 17 17 16 16 16 16 16 16 15 15 15 15 15 15 15 15 14 14 14 14 14 14
22 22 22 22 22 22 22 22 22 22 22 21 22 22 23 22 21 21 20 19 18 17 17 16 16 16 16 15 15 15 15 15 15 15 15 15 15 15 14 14 14 14 14 14
21 22 21 22 21 21 22 22 22 21 21 21 21 22 22 21 21 20 20 19 18 17 17 16 16 15 15 15 15 15 15 15 15 15 15 15 14 14 14 14 14 14 14 14
20 21 21 21 21 21 21 21 21 22 22 21 21 22 21 21 20 19 19 18 17 17 16 16 15 15 15 15 15 15 15 15 15 15 14 14 14 14 14 14 14 14 14 14
19 21 20 20 21 21 21 20 20 21 21 21 21 22 21 21 20 19 18 17 17 16 16 16 15 15 15 15 15 15 15 14 14 14 14 14 14 14 14 14 14 14 14 14
19 20 20 20 20 20 20 20 20 20 21 21 21 21 21 21 20 19 18 17 16 16 16 15 15 15 15 15 15 14 14 14 14 14 14 14 14 14 14 14 14 14 14 14
19 19 19 19 19 19 19 19 20 19 20 20 20 20 20 20 19 18 18 17 16 16 15 15 15 15 14 15 14 14 14 14 14 14 14 14 14 14 14 13 13 13 13 13
18 18 18 19 19 19 19 19 19 19 19 19 19 20 19 19 18 18 17 16 16 15 15 15 15 15 14 14 14 14 14 13 13 13 13 13 13 13 13 13 13 13 13 13
17 18 18 18 18 18 19 19 18 18 18 19 18 18 18 17 17 16 16 16 15 15 15 15 15 14 14 14 14 14 13 13 13 13 13 13 13 13 13 13 13 13 13 13
17 17 17 17 18 18 18 18 17 18 18 18 18 17 17 16 16 17 16 15 15 14 14 14 14 14 14 14 14 13 13 13 13 13 13 13 13 13 13 12 12 12 13 13
15 16 17 17 17 17 18 17 16 17 17 17 17 16 16 16 17 18 15 14 14 14 14 14 14 14 14 14 14 13 13 13 13 13 12 12 12 12 12 12 12 12 12 12
16 16 16 16 16 17 17 16 16 17 17 16 16 15 15 16 16 15 14 14 14 13 13 14 14 14 14 14 13 13 13 13 13 12 12 12 12 12 12 12 12 12 12 12
16 16 16 16 16 16 15 15 16 17 15 15 15 14 14 14 14 13 13 13 13 13 13 13 13 13 13 13 13 13 13 13 12 12 12 12 12 12 12 12 12 11 11 11
15 16 16 16 16 15 14 14 14 14 14 14 14 13 13 13 13 13 13 13 13 13 13 13 13 13 13 13 13 13 13 13 12 12 12 12 11 11 11 11 11 11 11 11
15 13 14 15 15 14 13 13 12 12 13 12 12 12 12 12 12 12 12 12 12 12 12 12 12 12 12 12 12 12 12 12 12 12 12 12 11 11 11 11 11 11 11 11
14 13 14 14 14 13 13 12 12 12 12 12 12 12 12 12 12 12 12 12 12 12 12 12 12 12 12 12 12 12 12 12 12 11 11 11 11 11 11 11 11 11 11 11
13 13 13 14 14 14 13 12 11 11 11 11 11 11 11 11 11 11 11 11 11 11 11 11 11 11 11 11 11 11 11 11 11 11 11 11 11 10 10 10 10 10 10 10
Wind_Speed
3 5 4 4 4 3 2 3 3 2 1 4 5 5 4 4 5 6 6 6 6 6 6 6 6 5 5 5 5 5 5 4 4 3 2 2 2 2 2 2 3 2 3 3
5 5 4 3 3 4 5 5 3 2 1 3 5 6 5 4 5 6 6 7 7 7 7 7 7 6 6 6 5 5 5 5 4 3 2 2 2 2 2 2 2 2 3 3
6 1 3 5 6 5 6 6 5 5 4 5 6 6 5 4 4 4 5 6 6 7 7 8 8 7 7 6 6 5 5 5 5 4 3 3 3 3 3 3 2 2 2 2
4 2 4 6 6 6 6 4 6 6 6 4 4 4 3 4 4 4 5 6 6 6 7 7 7 7 7 6 6 6 6 6 5 5 4 4 3 3 2 2 2 3 2 2
4 3 4 6 5 5 4 2 5 7 7 7 6 6 2 3 3 3 4 5 6 6 7 7 7 6 6 6 5 5 6 6 5 5 5 4 3 2 2 2 3 3 3 2
4 3 4 3 2 4 3 4 5 6 6 6 5 6 3 1 2 2 2 3 5 6 7 6 6 6 5 5 5 5 5 5 5 5 6 5 4 3 3 3 3 2 2 2
5 5 4 3 4 5 5 6 4 5 5 3 2 5 3 1 1 1 1 2 3 4 6 6 6 6 6 6 6 5 6 6 6 6 6 5 5 4 4 3 3 2 2 2
5 5 4 3 4 4 5 7 5 4 4 4 4 5 1 1 1 1 0 1 2 3 4 5 6 6 6 7 6 6 6 6 5 5 5 5 5 4 3 3 3 3 2 2
4 4 3 2 2 4 5 6 6 7 7 7 4 3 2 2 1 1 1 1 2 2 3 4 5 5 6 6 6 7 6 6 5 5 5 5 5 4 4 4 3 3 2 2
4 5 3 2 3 3 4 4 5 6 5 7 6 6 3 2 2 1 1 1 1 2 3 4 4 5 5 5 6 6 6 6 6 5 5 3 4 4 3 4 4 3 3 2
5 6 4 5 6 6 5 6 6 6 6 6 6 3 1 1 1 2 2 2 2 3 3 4 4 5 5 5 5 6 6 6 5 5 5 4 4 4 4 3 3 3 3 3
4 5 7 6 3 4 7 7 8 8 8 8 8 4 3 1 1 1 1 1 2 3 3 4 4 5 5 5 5 5 5 5 5 5 5 4 4 4 4 3 3 3 3 3
3 5 7 5 5 5 6 6 8 8 8 9 10 5 3 1 1 2 1 1 1 2 3 3 4 4 4 5 5 5 5 5 5 5 5 5 4 4 4 3 3 3 3 3
4 7 9 9 6 4 7 8 9 10 10 11 12 11 6 4 3 2 2 1 2 2 3 3 3 3 4 5 5 5 5 5 5 5 5 4 4 4 4 3 3 3 3 3
4 8 10 11 8 8 10 11 11 14 14 13 12 10 9 7 5 4 3 2 2 2 3 3 3 3 4 5 5 5 5 5 6 6 6 5 4 4 3 3 3 3 3 2
4 7 8 10 8 9 12 12 13 14 13 14 13 11 8 6 5 4 4 3 3 3 3 3 3 3 4 5 5 6 5 5 6 6 6 5 4 4 4 4 4 4 3 3
4 6 7 10 7 9 12 10 10 9 9 10 12 9 5 6 5 5 4 4 4 4 3 3 4 4 4 5 5 5 5 5 6 6 6 5 5 5 4 4 4 4 4 3
6 7 6 8 8 10 3 1 3 6 7 7 6 6 6 6 6 5 4 4 4 4 4 4 4 4 4 5 5 5 5 6 6 6 6 6 6 5 5 4 4 4 4 3
8 7 6 6 9 10 5 3 3 6 6 4 5 5 5 4 4 4 2 2 3 4 4 5 4 4 5 5 6 6 6 6 6 6 6 6 6 6 6 5 5 4 3 3
5 8 7 7 8 8 2 0 2 5 6 1 2 4 3 2 5 4 3 4 5 4 4 4 4 4 5 5 6 7 7 6 7 7 6 6 6 6 6 6 5 4 4 4
5 6 9 11 10 7 2 1 2 6 2 1 3 3 4 5 5 6 6 5 5 5 5 4 5 5 5 5 6 7 7 7 6 6 6 6 6 6 6 5 5 5 4 4
6 6 7 7 9 6 1 2 3 5 5 5 5 5 6 6 6 6 6 5 5 5 4 4 5 5 5 6 7 7 7 6 5 6 6 6 6 6 5 5 5 5 5 4
6 5 4 5 4 2 0 3 4 5 6 6 6 6 6 7 7 7 7 6 5 4 4 4 4 5 5 6 7 7 6 5 5 6 6 6 7 6 6 6 6 5 5 5
5 3 5 7 7 6 5 5 5 5 7 8 8 7 7 7 7 7 6 5 5 4 4 3 4 4 5 5 6 7 6 6 6 7 7 6 6 6 6 5 5 5 5 6
5 4 6 9 8 7 7 6 6 7 8 8 8 7 7 7 7 6 6 5 5 4 4 3 4 4 5 5 5 6 6 6 7 7 7 7 7 6 6 6 5 6 6 6
8 8 8 8 7 7 8 7 7 8 8 8 8 8 7 7 7 7 6 6 5 5 4 4 4 5 5 5 5 6 6 7 7 7 7 6 6 6 6 5 4 3 4 4
Wind_Direction
193 208 210 210 226 252 233 242 261 284 251 254 258 265 267 234 225 229 223 213 206 202 192 183 182 180 178 176 177 169 167 157 153 148 146 137 124 116 102 87 79 87 101 110
194 216 229 220 210 215 227 243 258 263 235 264 277 274 268 238 231 234 232 219 210 204 191 181 184 183 185 179 181 179 178 170 165 161 161 154 141 127 109 107 101 106 117 124
218 221 191 200 203 222 235 248 263 278 274 245 276 265 229 214 218 226 230 225 212 204 199 189 190 189 186 185 184 183 185 178 174 168 163 156 148 152 140 134 126 119 126 134
226 213 199 213 225 242 249 249 256 265 270 272 263 285 241 215 217 220 220 213 210 203 205 198 195 193 192 191 188 189 186 186 179 174 177 173 177 170 164 149 144 150 141 136
209 198 211 225 239 244 267 255 251 259 265 269 249 268 257 201 224 219 210 209 207 204 202 198 195 193 188 184 187 190 186 186 184 184 185 191 188 172 155 147 153 156 139 140
233 215 237 250 243 231 225 223 230 239 250 255 250 257 271 213 260 248 208 202 204 202 198 196 187 179 176 171 173 178 181 180 182 188 190 194 187 175 165 165 160 162 152 153
217 207 207 229 224 200 227 250 249 232 229 251 238 251 261 45 334 285 235 193 185 187 191 188 180 175 172 169 169 174 178 176 181 190 194 194 192 190 185 179 174 178 171 171
230 211 191 220 244 243 232 245 260 274 271 272 227 243 209 90 360 299 258 161 149 166 180 178 175 173 171 171 173 177 179 179 183 190 194 197 191 198 192 190 188 187 183 182
243 225 170 216 249 246 232 235 264 277 280 274 243 234 221 169 187 105 100 134 156 163 168 174 171 169 170 172 177 182 181 181 183 186 189 192 194 199 197 198 199 196 190 180
258 254 216 190 200 212 256 243 232 246 264 262 253 243 243 203 211 212 216 192 174 163 160 163 168 171 169 169 174 178 181 182 183 184 183 181 188 195 201 203 205 207 200 188
247 248 225 210 225 235 216 221 235 247 258 269 269 251 48 289 230 233 230 207 167 167 160 159 165 169 169 167 167 174 177 181 182 182 178 176 181 191 193 194 199 207 202 195
237 257 253 240 232 261 245 244 237 248 249 252 270 268 120 159 275 267 250 193 168 157 153 153 158 162 167 170 173 176 178 178 180 182 179 179 181 184 190 192 200 199 194 198
227 246 254 232 203 204 223 230 240 254 260 253 255 254 150 217 291 287 284 230 173 160 154 158 162 169 170 175 178 177 177 178 177 179 184 181 184 190 194 197 200 202 196 197
256 246 251 261 276 261 247 240 239 241 249 254 253 263 262 270 275 281 280 246 194 181 178 171 171 177 180 184 184 181 177 177 179 180 185 190 193 196 201 198 196 196 192 200
252 254 255 264 269 263 262 258 247 245 253 261 269 272 278 283 280 274 264 244 219 202 198 196 190 186 186 187 186 183 179 180 182 182 187 194 195 191 193 191 194 192 186 198
260 260 261 260 254 255 261 259 253 251 255 257 264 268 280 289 281 268 254 232 227 223 218 210 209 203 201 191 187 185 185 188 189 189 192 191 192 187 190 193 192 187 187 191
244 253 262 263 260 266 258 255 248 241 244 252 257 266 283 282 279 271 263 233 229 228 230 223 220 214 213 204 192 186 189 189 195 194 190 189 192 191 191 187 186 189 191 186
245 246 254 268 264 253 257 11 253 245 256 252 258 275 282 285 286 275 263 250 241 242 245 244 236 224 217 206 193 188 188 193 197 195 191 189 191 193 191 187 190 197 201 195
234 237 243 252 258 262 252 243 248 250 256 256 255 271 287 298 274 251 255 277 268 266 264 254 242 231 217 207 195 190 192 198 201 199 199 196 193 194 194 194 197 201 204 203
206 226 239 243 256 261 247 225 294 256 249 204 259 269 279 283 268 273 316 297 286 282 277 263 240 228 216 207 196 196 199 202 206 207 208 203 199 199 200 202 203 203 205 212
204 218 231 242 250 258 291 318 252 240 288 4 298 283 267 265 286 303 301 289 282 280 280 264 237 224 218 201 197 205 206 210 213 209 208 206 203 205 205 205 204 204 208 211
237 233 231 234 241 247 138 198 249 300 331 322 312 301 290 289 293 292 290 287 283 281 280 266 239 226 214 203 203 208 211 212 208 207 206 208 207 207 205 204 207 208 209 213
238 248 257 242 256 331 311 268 303 315 303 308 305 296 291 288 288 290 288 286 279 278 280 274 247 232 221 211 209 211 214 206 200 202 206 209 209 208 205 204 206 209 211 222
238 248 249 255 257 270 280 284 292 299 302 305 301 293 286 283 285 284 283 285 286 284 283 281 265 240 230 218 215 218 212 202 202 206 209 213 213 213 210 206 208 214 218 224
250 232 247 255 266 279 275 279 291 302 305 304 301 294 285 281 283 286 287 286 285 281 280 275 266 254 243 232 225 222 213 207 210 212 211 213 213 213 215 212 213 218 222 226
237 237 247 258 267 272 282 291 297 300 302 301 300 298 294 287 282 286 287 287 284 280 279 275 272 263 249 237 235 227 216 212 213 215 213 212 211 212 214 215 218 217 226 219
Height
1524 1523 1522 1522 1522 1522 1523 1525 1526 1525 1525 1526 1525 1524 1524 1526 1528 1528 1529 1530 1532 1533 1536 1537 1538 1540 1541 1542 1543 1544 1545 1546 1546 1547 1547 1548 1548 1548 1548 1548 1548 1548 1548 1549
1522 1522 1521 1522 1523 1524 1524 1526 1525 1525 1525 1526 1524 1522 1521 1523 1525 1526 1527 1527 1529 1531 1533 1535 1537 1538 1540 1541 1542 1543 1544 1545 1546 1546 1547 1548 1548 1549 1549 1548 1548 1549 1549 1549
1521 1521 1522 1523 1523 1524 1523 1524 1524 1525 1524 1523 1524 1521 1518 1520 1523 1525 1525 1526 1527 1529 1531 1533 1535 1537 1538 1539 1541 1542 1543 1545 1545 1546 1547 1547 1548 1548 1549 1549 1549 1549 1549 1550
1520 1521 1523 1522 1522 1522 1524 1521 1523 1524 1525 1523 1524 1525 1515 1515 1518 1521 1522 1524 1525 1527 1529 1531 1533 1535 1536 1538 1539 1541 1542 1543 1544 1545 1546 1547 1548 1549 1549 1549 1549 1550 1550 1550
1520 1521 1521 1522 1521 1521 1521 1521 1522 1522 1522 1522 1520 1523 1514 1512 1515 1516 1519 1521 1523 1525 1527 1529 1531 1532 1534 1536 1537 1539 1541 1542 1543 1544 1545 1547 1548 1548 1549 1549 1550 1550 1550 1550
1519 1521 1521 1520 1521 1522 1521 1522 1521 1520 1520 1527 1519 1521 1518 1511 1513 1514 1517 1519 1521 1523 1525 1527 1529 1530 1532 1534 1535 1537 1539 1540 1542 1543 1544 1546 1547 1548 1548 1549 1550 1550 1550 1550
1520 1519 1520 1521 1520 1521 1521 1523 1528 1528 1527 1523 1516 1519 1516 1511 1513 1514 1516 1518 1519 1521 1523 1524 1526 1528 1530 1531 1533 1535 1537 1539 1540 1542 1543 1545 1546 1547 1548 1549 1549 1550 1550 1550
1522 1522 1519 1519 1519 1519 1519 1520 1528 1533 1528 1519 1515 1517 1511 1512 1514 1515 1516 1517 1519 1520 1521 1523 1524 1526 1528 1529 1531 1533 1535 1537 1538 1540 1542 1543 1544 1546 1547 1548 1549 1549 1549 1550
1520 1521 1518 1520 1519 1519 1519 1518 1516 1520 1520 1523 1514 1511 1509 1512 1513 1515 1516 1517 1518 1519 1520 1521 1523 1524 1526 1528 1529 1531 1533 1535 1537 1538 1540 1541 1543 1544 1545 1546 1547 1548 1549 1549
1517 1521 1517 1519 1520 1520 1518 1516 1519 1522 1529 1527 1517 1513 1510 1509 1511 1513 1514 1516 1518 1519 1520 1521 1522 1523 1524 1526 1528 1530 1532 1534 1535 1537 1538 1539 1541 1542 1543 1545 1546 1547 1547 1548
1518 1519 1519 1518 1517 1516 1518 1519 1517 1517 1518 1524 1522 1515 1506 1508 1510 1512 1513 1515 1517 1518 1519 1520 1521 1522 1523 1525 1526 1528 1530 1532 1533 1535 1537 1538 1539 1540 1541 1543 1544 1545 1546 1546
1519 1517 1517 1515 1515 1516 1515 1514 1515 1520 1518 1517 1519 1515 1506 1509 1510 1512 1513 1515 1516 1517 1518 1519 1520 1521 1522 1523 1525 1526 1528 1530 1531 1533 1535 1536 1537 1538 1540 1541 1542 1543 1544 1545
1520 1519 1520 1518 1519 1517 1515 1514 1513 1513 1513 1514 1518 1514 1506 1508 1510 1512 1513 1514 1515 1516 1517 1518 1519 1520 1521 1522 1523 1525 1526 1528 1529 1531 1533 1534 1536 1537 1538 1539 1540 1541 1542 1543
1521 1516 1518 1520 1513 1513 1514 1515 1514 1513 1514 1511 1509 1506 1505 1507 1509 1511 1513 1513 1514 1515 1516 1517 1518 1519 1519 1520 1522 1523 1524 1526 1527 1529 1530 1532 1533 1534 1536 1537 1538 1539 1540 1541
1520 1516 1513 1511 1512 1513 1513 1512 1512 1511 1507 1508 1503 1504 1504 1505 1508 1510 1511 1512 1513 1513 1514 1515 1516 1517 1518 1519 1520 1521 1522 1523 1525 1526 1528 1529 1531 1532 1533 1534 1535 1536 1537 1538
1519 1516 1514 1513 1512 1512 1511 1509 1509 1509 1507 1506 1506 1506 1505 1506 1507 1508 1509 1510 1511 1512 1512 1513 1514 1515 1516 1517 1518 1519 1520 1521 1523 1524 1525 1527 1529 1530 1531 1532 1533 1534 1535 1536
1518 1516 1516 1511 1509 1510 1508 1504 1505 1506 1505 1505 1505 1504 1505 1505 1506 1507 1507 1508 1509 1510 1510 1511 1512 1513 1514 1515 1516 1517 1518 1519 1520 1522 1523 1524 1526 1527 1528 1530 1531 1532 1533 1534
1518 1516 1515 1512 1512 1515 1504 1502 1503 1504 1504 1504 1504 1504 1506 1506 1506 1506 1506 1507 1507 1508 1508 1509 1510 1511 1512 1513 1514 1515 1516 1517 1518 1519 1520 1522 1523 1524 1526 1527 1528 1529 1530 1531
1517 1516 1515 1513 1511 1504 1502 1503 1504 1504 1502 1503 1503 1504 1505 1505 1504 1504 1504 1505 1506 1506 1506 1507 1508 1508 1509 1510 1511 1512 1513 1514 1515 1516 1517 1519 1520 1521 1523 1524 1525 1526 1528 1528
1516 1515 1514 1513 1513 1507 1501 1503 1504 1505 1502 1502 1503 1503 1504 1504 1501 1500 1502 1503 1503 1503 1504 1504 1505 1505 1506 1507 1508 1510 1511 1511 1512 1513 1515 1516 1517 1518 1520 1521 1522 1524 1525 1525
1512 1513 1512 1510 1508 1500 1502 1504 1505 1506 1501 1503 1502 1502 1503 1502 1501 1502 1501 1501 1500 1500 1500 1501 1501 1502 1503 1504 1505 1506 1508 1508 1509 1511 1512 1513 1514 1515 1517 1518 1519 1521 1522 1522
1507 1508 1507 1507 1507 1504 1503 1503 1503 1502 1502 1502 1501 1501 1502 1501 1500 1500 1499 1498 1498 1497 1497 1497 1497 1498 1499 1500 1501 1503 1504 1505 1506 1507 1509 1509 1511 1512 1513 1514 1516 1517 1518 1519
1507 1505 1503 1503 1503 1502 1503 1503 1503 1503 1502 1501 1501 1501 1500 1499 1498 1497 1497 1496 1495 1494 1494 1494 1494 1494 1495 1496 1498 1499 1501 1502 1503 1504 1505 1506 1508 1509 1509 1510 1512 1513 1514 1515
1506 1508 1506 1503 1501 1502 1503 1503 1502 1502 1501 1500 1499 1498 1497 1496 1495 1494 1493 1492 1492 1491 1491 1490 1490 1491 1492 1492 1494 1496 1497 1498 1499 1500 1501 1502 1504 1504 1505 1506 1507 1508 1510 1511
1505 1506 1504 1501 1500 1501 1501 1501 1500 1500 1499 1497 1496 1495 1494 1493 1492 1491 1490 1489 1488 1488 1487 1487 1487 1487 1488 1489 1490 1491 1493 1494 1495 1496 1497 1498 1499 1500 1501 1502 1503 1504 1505 1507
1503 1503 1502 1498 1499 1499 1499 1498 1498 1497 1496 1495 1493 1492 1491 1490 1489 1488 1487 1486 1485 1484 1484 1484 1484 1484 1485 1485 1486 1487 1488 1490 1491 1492 1493 1494 1495 1496 1497 1498 1499 1500 1501 1502